KB5DPX Weather Reports


time (UTC)temp
F
wind
direction
speed
knots
gust
knots
rain 1hr
in
rain 24hr
in
rain mn
in
humidity
%
barometer
mb
20260502220744 47 313 6.1 8.7 0.00 0.00 0.00 44 1015.2
20260502220230 47 313 5.2 8.7 0.00 0.00 0.00 42 1015.2
20260502215752 47 302 5.2 8.7 0.00 0.00 0.00 42 1015.2
20260502215239 47 307 4.3 7.8 0.00 0.00 0.00 43 1015.2
20260502214726 47 295 3.5 9.6 0.00 0.00 0.00 44 1015.2
20260502214242 47 279 7.0 9.6 0.00 0.00 0.00 44 1015.3
20260502213728 47 313 7.8 9.6 0.00 0.00 0.00 45 1015.3
20260502213244 47 300 6.1 10.4 0.00 0.00 0.00 45 1015.4
20260502212742 47 309 6.1 10.4 0.00 0.00 0.00 45 1015.4
20260502212248 46 300 6.1 9.6 0.00 0.00 0.00 44 1015.4
20260502211751 46 294 5.2 10.4 0.00 0.00 0.00 45 1015.5
20260502211238 46 287 7.0 10.4 0.00 0.00 0.00 45 1015.5
20260502210744 47 295 7.8 10.4 0.00 0.00 0.00 47 1015.6
20260502210249 47 305 7.0 11.3 0.00 0.00 0.00 43 1015.6
20260502205728 46 294 7.0 11.3 0.00 0.00 0.00 46 1015.7
20260502205243 46 308 6.1 10.4 0.00 0.00 0.00 45 1015.7
20260502204729 46 319 6.1 10.4 0.00 0.00 0.00 44 1015.8
20260502204244 46 286 7.0 9.6 0.00 0.00 0.00 44 1015.8
20260502203745 46 308 4.3 11.3 0.00 0.00 0.00 46 1015.9
20260502203252 46 307 7.0 12.2 0.00 0.00 0.00 43 1015.9
20260502202728 46 290 7.8 12.2 0.00 0.00 0.00 44 1015.9
20260502202245 46 290 7.0 11.3 0.00 0.00 0.00 44 1016.0
20260502201731 46 302 7.0 12.2 0.00 0.00 0.00 45 1016.0
20260502201246 45 298 8.7 12.2 0.00 0.00 0.00 45 1016.2
20260502200732 45 301 8.7 13.9 0.00 0.00 0.00 46 1016.2
20260502200246 45 292 10.4 13.9 0.00 0.00 0.00 45 1016.3
20260502195739 45 278 9.6 13.9 0.00 0.00 0.00 44 1016.3
20260502195226 45 290 11.3 13.9 0.00 0.00 0.00 45 1016.4
20260502194246 45 305 9.6 13.0 0.00 0.00 0.00 45 1016.5
20260502193734 45 281 7.8 13.0 0.00 0.00 0.00 47 1016.6
20260502193249 45 293 9.6 13.0 0.00 0.00 0.00 46 1016.7
20260502192726 46 304 7.8 13.0 0.00 0.00 0.00 47 1016.7
20260502192241 46 300 6.1 12.2 0.00 0.00 0.00 46 1016.7
20260502191743 45 298 7.0 13.9 0.00 0.00 0.00 48 1016.9
20260502191250 44 277 10.4 13.9 0.00 0.00 0.00 48 1016.9
20260502190737 44 300 8.7 14.8 0.00 0.00 0.00 47 1017.0
20260502190226 44 297 9.6 17.4 0.00 0.00 0.00 49 1017.0
20260502185752 43 281 8.7 17.4 0.00 0.00 0.00 48 1017.1
20260502185240 43 282 9.6 15.6 0.00 0.00 0.00 48 1017.1
20260502184728 43 303 9.6 15.6 0.00 0.00 0.00 49 1017.1
20260502184244 43 300 11.3 14.8 0.00 0.00 0.00 50 1017.2
20260502183725 43 273 10.4 14.8 0.00 0.00 0.00 50 1017.3
20260502183242 43 312 10.4 15.6 0.00 0.00 0.00 51 1017.4
20260502182742 43 292 10.4 15.6 0.00 0.00 0.00 52 1017.4
20260502182231 42 295 7.8 13.9 0.00 0.00 0.00 55 1017.4
20260502181727 42 294 8.7 16.5 0.00 0.00 0.00 55 1017.4
20260502181242 42 288 9.6 16.5 0.00 0.00 0.00 56 1017.5
20260502180729 42 292 9.6 15.6 0.00 0.00 0.00 57 1017.5
20260502180244 42 290 9.6 14.8 0.00 0.00 0.00 60 1017.5
20260502170243 42 251 10.4 13.9 0.00 0.00 0.00 53 1017.7
20260502164231 42 273 8.7 15.6 0.00 0.00 0.00 49 1017.8
20260502163741 42 281 9.6 14.8 0.00 0.00 0.00 50 1017.8
20260502163247 42 280 10.4 14.8 0.00 0.00 0.00 51 1017.9
20260502162743 42 281 9.6 14.8 0.00 0.00 0.00 50 1017.9
20260502162247 42 278 7.0 12.2 0.00 0.00 0.00 55 1017.9
20260502161733 43 261 9.6 12.2 0.00 0.00 0.00 54 1018.0
20260502161249 42 290 7.8 12.2 0.00 0.00 0.00 57 1018.0
20260502160733 42 294 8.7 13.0 0.00 0.00 0.00 59 1017.9
20260502160247 41 288 8.7 13.0 0.00 0.00 0.00 58 1018.0
20260502152230 41 278 9.6 13.0 0.00 0.00 0.00 64 1018.1
20260502151740 40 279 8.7 13.0 0.00 0.00 0.00 64 1018.1
20260502151226 40 290 7.8 12.2 0.00 0.00 0.00 66 1018.1
20260502150740 40 289 8.7 12.2 0.00 0.00 0.00 66 1018.1
20260502150245 40 278 8.7 11.3 0.00 0.00 0.00 66 1018.1
20260502130736 38 300 8.7 13.0 0.00 0.00 0.00 75 1018.4
20260502130250 38 273 7.0 13.0 0.00 0.00 0.00 76 1018.3
20260502123739 37 284 7.8 12.2 0.00 0.00 0.00 82 1018.4
20260502123245 37 266 7.8 12.2 0.00 0.00 0.00 82 1018.4
20260502122742 36 275 7.0 11.3 0.00 0.00 0.00 84 1018.4
20260502122245 36 279 6.1 11.3 0.00 0.00 0.00 86 1018.4
20260502121748 35 267 5.2 10.4 0.00 0.00 0.00 88 1018.4
20260502121231 34 265 7.0 10.4 0.00 0.00 0.00 90 1018.4
20260502120740 33 276 5.2 9.6 0.00 0.00 0.00 90 1018.4
20260502120245 33 264 5.2 9.6 0.00 0.00 0.00 83 1018.4
20260502115742 31 259 5.2 9.6 0.00 0.00 0.00 77 1018.4
20260502115227 30 281 0.0 0.0 0.00 0.00 0.00 77 1018.4
20260502114740 29 281 0.0 0.0 0.00 0.00 0.00 78 1018.4
20260502114229 29 281 0.0 0.0 0.00 0.00 0.00 78 1018.4
20260502113742 28 281 0.0 0.0 0.00 0.00 0.00 78 1018.4
20260502113242 28 281 0.0 0.0 0.00 0.00 0.00 77 1018.4
20260502112740 27 281 0.0 0.0 0.00 0.00 0.00 77 1018.3
20260502112246 26 281 0.0 0.0 0.00 0.00 0.00 78 1018.3
20260502111730 26 281 0.0 0.0 0.00 0.00 0.00 78 1018.3
20260502111225 25 281 0.0 0.0 0.00 0.00 0.00 79 1018.3
20260502110740 25 281 0.0 0.0 0.00 0.00 0.00 79 1018.3
20260502110227 25 281 0.0 0.0 0.00 0.00 0.00 80 1018.3
20260502105733 25 281 0.0 0.0 0.00 0.00 0.00 80 1018.3
20260502105246 25 281 0.0 0.0 0.00 0.00 0.00 80 1018.3
20260502104733 25 281 0.0 0.0 0.00 0.00 0.00 80 1018.3
20260502104249 25 281 0.0 0.0 0.00 0.00 0.00 80 1018.3
20260502103738 25 281 0.0 0.0 0.00 0.00 0.00 80 1018.3
20260502103226 25 281 0.0 0.0 0.00 0.00 0.00 80 1018.3
20260502102731 25 281 0.0 0.0 0.00 0.00 0.00 80 1018.3
20260502102227 25 281 0.0 0.0 0.00 0.00 0.00 81 1018.3
20260502101741 25 281 0.0 0.0 0.00 0.00 0.00 81 1018.2
20260502101229 25 281 0.0 0.0 0.00 0.00 0.00 81 1018.3
20260502100725 25 281 0.0 0.0 0.00 0.00 0.00 81 1018.3
20260502100237 25 281 0.0 0.0 0.00 0.00 0.00 81 1018.2
20260502091227 26 281 0.0 0.0 0.00 0.00 0.00 81 1018.2
20260502090743 26 281 0.0 0.0 0.00 0.00 0.00 81 1018.1
20260502090230 26 281 0.0 0.0 0.00 0.00 0.00 81 1018.1
20260502071248 28 281 0.0 0.0 0.00 0.00 0.00 82 1017.9
20260502070735 28 281 0.0 0.0 0.00 0.00 0.00 82 1017.9
20260502070250 28 281 0.0 0.0 0.00 0.00 0.00 82 1017.9
20260502065749 28 281 0.0 0.0 0.00 0.00 0.00 83 1017.9
20260502065236 28 281 0.0 0.0 0.00 0.00 0.00 83 1017.9
20260502064751 28 281 0.0 0.0 0.00 0.00 0.00 83 1017.9
20260502064252 28 281 0.0 0.0 0.00 0.00 0.00 83 1017.9
20260502063740 28 281 0.0 0.0 0.00 0.00 0.00 83 1018.0
20260502063226 28 281 0.0 0.0 0.00 0.00 0.00 84 1018.0
20260502062733 28 281 0.0 0.0 0.00 0.00 0.00 84 1018.0
20260502062248 28 281 0.0 0.0 0.00 0.00 0.00 85 1018.0
20260502061731 28 281 0.0 0.0 0.00 0.00 0.00 85 1018.0
20260502061226 28 281 0.0 0.0 0.00 0.00 0.00 85 1018.0
20260502060741 29 281 0.0 0.0 0.00 0.00 0.00 86 1018.0
20260502060243 29 281 0.0 0.0 0.00 0.00 0.00 86 1018.0
20260502055742 29 281 0.0 0.0 0.00 0.00 0.00 87 1018.0
20260502055247 29 281 0.0 0.0 0.00 0.00 0.00 87 1018.0
20260502054735 29 281 0.0 0.0 0.00 0.00 0.00 87 1018.1
20260502054251 30 281 0.0 0.0 0.00 0.00 0.00 87 1018.0
20260502053737 30 281 0.0 0.0 0.00 0.00 0.00 88 1018.0
20260502053251 30 281 0.0 0.0 0.00 0.00 0.00 89 1018.0
20260502052731 31 281 0.0 0.0 0.00 0.00 0.00 88 1018.0
20260502052226 31 281 0.0 0.0 0.00 0.00 0.00 88 1018.0
20260502051738 31 281 0.0 0.0 0.00 0.00 0.00 85 1018.0
20260502051226 31 281 0.0 0.0 0.00 0.00 0.00 83 1018.0
20260502050741 30 281 0.0 0.0 0.00 0.00 0.00 82 1018.0
20260502050229 30 281 0.0 0.0 0.00 0.00 0.00 82 1018.0
20260502045733 30 281 0.0 0.0 0.00 0.00 0.00 83 1017.9
20260502045248 30 281 0.0 0.0 0.00 0.00 0.00 83 1017.9
20260502044736 30 281 0.0 0.0 0.00 0.00 0.00 84 1017.9
20260502044252 30 281 0.0 0.0 0.00 0.00 0.00 85 1017.9
20260502043753 30 281 0.0 0.0 0.00 0.00 0.00 84 1017.7
20260502043241 30 281 0.0 0.0 0.00 0.00 0.00 84 1017.9
20260502042740 30 281 0.0 0.0 0.00 0.00 0.00 85 1017.8
20260502042228 30 281 0.0 0.0 0.00 0.00 0.00 86 1017.9
20260502041744 31 281 0.0 0.0 0.00 0.00 0.00 86 1017.9
20260502041231 31 281 0.0 0.0 0.00 0.00 0.00 86 1017.9
20260502040727 31 281 0.0 0.0 0.00 0.00 0.00 87 1017.9
20260502040244 31 281 0.0 0.0 0.00 0.00 0.00 87 1018.0
20260502035747 31 281 0.0 0.0 0.00 0.00 0.00 87 1018.0
20260502035253 32 281 0.0 0.0 0.00 0.00 0.00 88 1017.9
20260502034741 32 281 0.0 0.0 0.00 0.00 0.00 88 1017.9
20260502034249 33 281 0.0 0.0 0.00 0.00 0.00 88 1017.9
20260502033737 33 281 0.0 0.0 0.00 0.00 0.00 94 1017.9
20260502033250 33 281 0.0 1.7 0.00 0.00 0.00 88 1017.9
20260502032730 34 281 0.0 2.6 0.00 0.00 0.00 88 1018.0
20260502032246 34 281 1.7 2.6 0.00 0.00 0.00 88 1017.9
20260502031749 34 281 0.9 2.6 0.00 0.00 0.00 88 1017.9
20260502031237 34 281 1.7 3.5 0.00 0.00 0.00 88 1017.9
20260502030744 34 281 1.7 4.3 0.00 0.00 0.00 88 1018.0
20260502030250 35 281 2.6 3.5 0.00 0.00 0.00 88 1018.0
20260502025730 35 281 1.7 4.3 0.00 0.00 0.00 88 1018.0
20260502025227 35 281 2.6 6.1 0.00 0.00 0.00 89 1018.0
20260502024743 35 281 4.3 6.1 0.00 0.00 0.00 89 1018.1
20260502024231 35 281 2.6 3.5 0.00 0.00 0.00 89 1018.1
20260502023727 35 281 2.6 4.3 0.00 0.00 0.00 89 1018.1
20260502023239 35 281 2.6 7.0 0.00 0.00 0.00 89 1018.1
20260502022737 35 281 2.6 7.0 0.00 0.00 0.00 89 1018.1
20260502022244 35 281 1.7 7.0 0.00 0.00 0.00 89 1018.1
20260502021731 35 281 2.6 6.1 0.00 0.00 0.00 89 1018.1
20260502021247 35 281 2.6 7.8 0.00 0.00 0.00 89 1018.1
20260502020734 35 282 2.6 7.8 0.00 0.00 0.00 89 1018.1
20260502020250 35 282 5.2 7.0 0.00 0.00 0.00 89 1018.1
20260502015727 35 282 4.3 7.0 0.00 0.00 0.00 89 1018.1
20260502015239 36 282 2.6 7.0 0.00 0.00 0.00 89 1018.1
20260502014727 36 282 4.3 7.0 0.00 0.00 0.00 89 1018.0
20260502014244 36 282 4.3 7.8 0.00 0.00 0.00 89 1018.0
20260502013732 36 282 3.5 7.8 0.00 0.00 0.00 89 1018.0
20260502013248 36 283 2.6 6.1 0.00 0.00 0.00 89 1017.9
20260502012745 36 283 3.5 8.7 0.00 0.00 0.00 89 1017.9
20260502012232 36 283 4.3 8.7 0.00 0.00 0.00 89 1018.0
20260502011748 36 283 4.3 7.8 0.00 0.00 0.00 89 1017.9
20260502011251 36 271 4.3 9.6 0.00 0.00 0.00 89 1017.8
20260502010739 36 270 5.2 10.4 0.00 0.00 0.00 89 1017.7
20260502010246 36 273 6.1 11.3 0.00 0.00 0.00 89 1017.7
20260502005726 36 264 7.0 11.3 0.00 0.00 0.00 89 1017.7
20260502005242 36 290 1.7 8.7 0.00 0.00 0.00 88 1017.7
20260502004728 36 281 5.2 7.8 0.00 0.00 0.00 88 1017.7
20260502004241 36 281 3.5 9.6 0.00 0.00 0.00 88 1017.7
20260502003729 36 280 6.1 9.6 0.00 0.00 0.00 87 1017.7
20260502003240 36 287 6.1 9.6 0.00 0.00 0.00 86 1017.7
20260502002739 36 298 5.2 9.6 0.00 0.00 0.00 85 1017.7
20260502002246 37 288 4.3 13.0 0.00 0.00 0.00 84 1017.7
20260502001732 37 257 8.7 13.0 0.00 0.00 0.00 81 1017.6
20260502001246 37 289 7.0 12.2 0.00 0.00 0.00 80 1017.5
20260502000731 37 282 7.0 11.3 0.00 0.00 0.00 79 1017.5
20260502000248 37 279 7.8 10.4 0.00 0.00 0.00 80 1017.4
20260501235744 37 271 6.1 11.3 0.00 0.00 0.00 81 1017.3
20260501235227 37 268 7.8 11.3 0.00 0.00 0.00 83 1017.3
20260501234742 36 277 7.8 12.2 0.00 0.00 0.00 84 1017.3
20260501234249 37 274 7.0 12.2 0.00 0.00 0.00 85 1017.3
20260501233736 37 288 5.2 12.2 0.00 0.00 0.00 85 1017.3
20260501233252 37 293 7.8 12.2 0.00 0.00 0.00 84 1017.3
20260501232731 37 290 7.8 10.4 0.00 0.00 0.00 84 1017.3
20260501232244 37 302 5.2 13.0 0.00 0.00 0.00 83 1017.3
20260501231731 37 302 7.0 13.0 0.00 0.00 0.00 84 1017.4
20260501231241 37 292 7.0 11.3 0.00 0.00 0.00 83 1017.2
20260501230747 37 313 6.1 12.2 0.00 0.00 0.00 84 1017.2
20260501230249 37 325 7.0 12.2 0.00 0.00 0.00 85 1017.2
20260501225728 37 311 7.0 9.6 0.00 0.00 0.00 87 1017.2
20260501225243 37 321 7.8 9.6 0.00 0.00 0.00 87 1017.1
20260501224729 37 316 7.8 10.4 0.00 0.00 0.00 88 1017.2
20260501224244 37 308 7.8 11.3 0.00 0.00 0.00 88 1017.2
20260501223730 37 313 7.8 13.0 0.00 0.00 0.00 87 1017.2
20260501223242 37 306 8.7 13.0 0.00 0.00 0.00 87 1017.3
20260501222740 37 302 7.0 11.3 0.00 0.00 0.00 86 1017.2
20260501222245 37 300 7.8 11.3 0.00 0.00 0.00 85 1017.2
20260501221731 37 302 7.8 11.3 0.00 0.00 0.00 84 1017.1
20260501221245 37 314 6.1 10.4 0.00 0.00 0.00 84 1017.1